Location: Sungai Igah
(2.7333°N, 114.2500°E)
Time: 20:27:56
(UTC+00:00)

Cosmos 2228 Rocket - Pass Details

Date: 14 June 2021
Orbit: 616 x 653 km, 82.5° (Epoch: 26 July)

Event Time Altitude Azimuth Distance (km) Brightness Sun altitude
Rises 21:49:28 0° 341° (NNW) 2,910 6.6 -6.7°
Reaches altitude 10° 21:51:52 10° 332° (NNW) 1,998 5.6 -6.2°
Maximum altitude 21:55:52 34° 267° (W) 1,030 3.7 -5.2°
Drops below altitude 10° 21:59:51 10° 202° (SSW) 1,987 5.2 -4.3°
Sets 22:02:14 0° 192° (SSW) 2,891 6.1 -3.8°
